Notices

Please take our survey and provide feedback: https://eccc.sondage-survey.ca/f/LanguageSelection.aspx?s=442ca660-fcf1-47c0-95a9-59707d6fd709

Please note that for the Engineering Climate Datasets, IDF dataset is available through this link.  Intensity-Duration-Frequency (IDF) Files: Includes the latest version of short-duration rainfall Intensity-Duration-Frequency (IDF) statistics in the form of tables and graphs with accompanying documentation for various locations across Canada.  Current IDF files can be accessed through our station finder application or downloaded for each province and territory across Canada.  In addition, historical versions of IDF files are also available for download.  Updates of IDF files are provided approximately every two years depending on the availability of data.   Thank you for your patience as we enhance our systems.

Hourly Data Report for March 08, 2012

HALIFAX STANFIELD INT'L A
NOVA SCOTIA

44°52'48.060" N
63°30'00.050" W
145.40 m
8202250
71395
YHZ

Download Data

Hourly Data (March 2012)
Hourly Data Report for March 8, 2012
TIME
LST
Temp Definition
°C
Dew Point Definition
°C
Rel Hum Definition
%
Precip. Amount Definition
mm

Wind Dir Definition
10's deg

Wind Spd Definition
km/h
Visibility Definition
km
Stn Press Definition
kPa
Hmdx Definition


Wind Chill Definition


Weather Definition


00:00 2.5 1.9 96   21 19 9.7 100.60     Fog
01:00 2.6 2.0 96   20 17 9.7 100.52     Fog
02:00 2.7 2.2 97   21 24 8.0 100.42     Fog
03:00 2.8 2.2 96   22 22 8.0 100.33     Fog
04:00 2.6 2.1 96   22 20 9.7 100.28     Fog
05:00 2.5 1.9 96   20 19 4.8 100.27     Fog
06:00 2.1 1.6 96   20 15 6.4 100.26     Fog
07:00 2.0 1.7 98   19 15 6.4 100.22     Fog
08:00 3.9 3.3 96   21 22 9.7 100.17     Fog
09:00 6.5 3.7 82   23 32 16.1 100.13     Mostly Cloudy
10:00 8.2 4.6 78   22 32 24.1 100.14     Mainly Clear
11:00 10.6 5.7 72   22 32 24.1 100.06     Mainly Clear
12:00 11.7 6.2 69   22 41 24.1 100.01     Mostly Cloudy
13:00 12.1 6.2 67   22 41 24.1 99.89     Mostly Cloudy
14:00 14.1 6.9 62   22 35 24.1 99.81     Mostly Cloudy
15:00 15.1 6.3 56   22 52 24.1 99.69     Mostly Cloudy
16:00 15.0 6.9 58   23 57 24.1 99.64     Mostly Cloudy
17:00 10.9 6.0 72   20 35 24.1 99.67     Mostly Cloudy
18:00 9.6 5.8 77   20 33 24.1 99.67     Mostly Cloudy
19:00 7.4 5.2 86   20 37 24.1 99.67     Mainly Clear
20:00 6.8 5.1 89   20 33 24.1 99.64     Mainly Clear
21:00 6.9 5.6 91   20 39 24.1 99.59     Mostly Cloudy
22:00 6.4 5.6 95   20 41 24.1 99.45     Mostly Cloudy
23:00 6.8 5.9 94   20 48 24.1 99.36     Cloudy

Notes on Data Quality.

Legend

  • E = Estimated
  • M = Missing
  • NA = Not Available*
  • [empty] = Indicates an unobserved value
Date modified: